This is the latest recevied weather packets stored in our database for station/object N2WH. If no packets are shown the sender has not sent any weather packets the latest 10 day(s).
| Time | Temp. | Humidity | Pressure | Rain* | Wind** | Luminosity | Snow |
|---|---|---|---|---|---|---|---|
| 1777522879 | 8.33° C | 99% | 1010.8 hPa | 6.1 mm | - | 0 W/m² | - |
| 1777522577 | 8.33° C | 99% | 1010.8 hPa | 7.87 mm | - | 0 W/m² | - |
| 1777522274 | 8.33° C | 99% | 1010.9 hPa | 6.1 mm | - | 0 W/m² | - |
| 1777521971 | 8.33° C | 99% | 1010.6 hPa | 4.83 mm | - | 0 W/m² | - |
| 1777521668 | 8.33° C | 99% | 1010.5 hPa | 3.56 mm | - | 0 W/m² | - |
| 1777521365 | 8.33° C | 99% | 1010.8 hPa | 1.27 mm | - | 0 W/m² | - |
| 1777521061 | 8.33° C | 99% | 1010.8 hPa | 3.05 mm | - | 0 W/m² | - |
| 1777520759 | 8.33° C | 99% | 1010.8 hPa | 3.05 mm | - | 0 W/m² | - |
| 1777520456 | 8.33° C | 99% | 1010.8 hPa | 3.05 mm | - | 0 W/m² | - |
| 1777520152 | 8.33° C | 99% | 1011 hPa | 1.78 mm | - | 0 W/m² | - |
| 1777519850 | 8.33° C | 99% | 1011.2 hPa | 0 mm | - | 0 W/m² | - |
| 1777519547 | 8.33° C | 99% | 1011.2 hPa | 1.27 mm | - | 0 W/m² | - |
| 1777519243 | 8.33° C | 99% | 1011.3 hPa | 1.27 mm | - | 0 W/m² | - |
| 1777518939 | 8.33° C | 99% | 1011.2 hPa | 1.78 mm | - | 0 W/m² | - |
| 1777518636 | 8.89° C | 99% | 1011.4 hPa | 1.78 mm | - | 0 W/m² | - |
| 1777518332 | 8.89° C | 99% | 1011.1 hPa | 0 mm | - | 0 W/m² | - |
| 1777518028 | 8.89° C | 99% | 1011 hPa | 3.05 mm | - | 0 W/m² | - |
| 1777517724 | 8.89° C | 99% | 1011 hPa | 4.32 mm | - | 0 W/m² | - |
| 1777517421 | 8.89° C | 98% | 1010.9 hPa | 3.05 mm | - | 0 W/m² | - |
| 1777517120 | 8.89° C | 98% | 1010.6 hPa | 3.56 mm | - | 0 W/m² | - |
| 1777516817 | 8.89° C | 98% | 1011.1 hPa | 3.05 mm | - | 0 W/m² | - |
| 1777516514 | 8.89° C | 98% | 1011.4 hPa | 3.05 mm | - | 0 W/m² | - |
| 1777516209 | 8.89° C | 98% | 1011.5 hPa | 3.05 mm | - | 0 W/m² | - |
| 1777515906 | 8.89° C | 98% | 1011.7 hPa | 3.05 mm | - | 0 W/m² | - |
| 1777515603 | 8.89° C | 98% | 1011.8 hPa | 3.05 mm | - | 0 W/m² | - |
* Rain latest hour (hover to see other rain measurements)
** Current wind speed in m/s (hover to see current wind gust speed)